Flag for U.S.A. Weather past 2 weeks in Jackson, Wyoming, U.S.A.

Now
-6 °F

Clear.


Feels Like: -17 °F
Forecast: 2 / 33 °F
Wind: 5 mph from Northeast

Location: Jackson Hole

Current Time: Mar 5, 2015 at 7:51:50 AM

Latest Report: Mar 5, 2015 at 6:35 AM


Visibility: 10 mi

Pressure: 30.32 "Hg

Humidity: 84%

Dew point: -9 °F

Location of JacksonLocation

Historic Weather in Jackson — Graph

°F

Jackson temperature yesterday

Maximum temperature yesterday: 21 °F (at 3:57 PM)
Minimum temperature yesterday: -9 °F (at 7:51 AM)
Average temperature yesterday: 5 °F

Past Weeks' High & Low Weather Summary

 TemperatureHumidityPressure
High45 °F (Feb 19, 2:51 PM)100% (Feb 20, 4:55 AM)30.32 "Hg (Feb 20, 4:55 AM)
Low-9 °F (Feb 23, 5:15 AM)32% (Feb 23, 4:51 PM)29.58 "Hg (Mar 2, 6:54 PM)
Average14 °F77%30.01 "Hg
* Reported Feb 18 6:15 AM — Mar 5 6:35 AM, Jackson, Weather by CustomWeather, © 2015

Note: Actual official high and low records may vary slightly from our data, if they occured in-between our weather recording intervals... More about our weather records

Advertising

Jackson weather history for previous 24 hours

 ConditionsComfort  
Time TempWeatherWind HumidityBarometerVisibility
6:35 AM
Thu, Mar 5
-6 °FClear.5 mph84%30.32 "Hg10 mi
6:15 AM-6 °FClear.8 mph92%30.32 "Hg10 mi
5:55 AM-6 °FClear.8 mph92%30.31 "Hg10 mi
5:35 AM-6 °FClear.3 mph92%30.32 "Hg10 mi
5:15 AM-2 °FClear.6 mph84%30.30 "Hg10 mi
4:55 AM-2 °FClear.3 mph84%30.29 "Hg10 mi
4:35 AM-2 °FClear.7 mph84%30.28 "Hg10 mi
4:15 AM-2 °FClear.9 mph84%30.27 "Hg10 mi
3:55 AM-2 °FClear.7 mph84%30.26 "Hg10 mi
3:35 AM-2 °FClear.13 mph84%30.26 "Hg10 mi
3:15 AM0 °FClear.10 mph84%30.26 "Hg10 mi
2:55 AM-2 °FClear.9 mph84%30.27 "Hg10 mi
2:35 AM0 °FClear.9 mph92%30.27 "Hg10 mi
2:15 AM-2 °FClear.9 mph84%30.27 "Hg10 mi
1:55 AM0 °FClear.5 mph84%30.27 "Hg10 mi
1:35 AM1 °FClear.10 mph85%30.26 "Hg10 mi
1:15 AM1 °FClear.16 mph85%30.24 "Hg10 mi
12:55 AM0 °FClear.17 mph84%30.25 "Hg10 mi
12:35 AM0 °FClear.16 mph92%30.24 "Hg10 mi
12:15 AM1 °FClear.14 mph85%30.24 "Hg10 mi
11:55 PM
Wed, Mar 4
1 °FClear.7 mph85%30.24 "Hg10 mi
11:35 PM1 °FClear.15 mph85%30.24 "Hg10 mi
11:15 PM3 °FClear.17 mph78%30.23 "Hg10 mi
10:55 PM1 °FClear.17 mph85%30.23 "Hg10 mi
10:35 PM1 °FClear.16 mph78%30.22 "Hg10 mi
10:15 PM3 °FClear.10 mph78%30.22 "Hg10 mi
9:35 PM1 °FClear.14 mph78%30.20 "Hg10 mi
9:15 PM1 °FClear.13 mph85%30.19 "Hg10 mi
8:00 PM5 °FClear.9 mph72%30.17 "Hg10 mi
6:51 PM10 °FClear.9 mph61%30.16 "Hg10 mi
5:51 PM18 °FSunny.5 mph49%30.13 "Hg10 mi
4:51 PM19 °FSunny.6 mph49%30.12 "Hg10 mi
3:57 PM21 °FSunny.7 mph49%30.11 "Hg10 mi
2:51 PM19 °FSunny.5 mph49%30.11 "Hg10 mi
1:51 PM16 °FSunny.No wind53%30.11 "Hg10 mi
12:51 PM16 °FSunny.No wind57%30.12 "Hg10 mi
11:51 AM10 °FSunny.3 mph67%30.12 "Hg10 mi
10:51 AM5 °FSunny.6 mph78%30.12 "Hg10 mi
9:51 AM0 °FSunny.7 mph78%30.12 "Hg10 mi
8:51 AM-4 °FSunny.7 mph84%30.10 "Hg10 mi
7:51 AM-9 °FSunny.12 mph92%30.07 "Hg10 mi
Weather by CustomWeather, © 2015

See weather overviewHow to use our weather pages